Weather History for Sioux Falls, SD

Change the Weather History Date:

Friday, May 23, 2014

  Actual Average Record
Temperature  
Mean Temperature 67 °F 60 °F  
Max Temperature 82 °F 72 °F 94 °F (1950)
Min Temperature 51 °F 49 °F 33 °F (1893)
Degree Days  
Heating Degree Days 0 6  
Month to date heating degree days 270 208  
Since 1 July heating degree days 8288 7615  
Cooling Degree Days 2 1  
Month to date cooling degree days 2 19  
Year to date cooling degree days 2 24  
Growing Degree Days 16 (Base 50)    
Moisture  
Dew Point 42 °F    
Average Humidity 46    
Maximum Humidity 63    
Minimum Humidity 28    
Precipitation  
Precipitation 0.00 in 0.11 in 3.96 in (1936)
Month to date precipitation 1.02 2.47  
Year to date precipitation 3.89 8.40  
Snow  
Snow 0.00 in 0.00 in - ()
Month to date snowfall 0.0 0.4  
Since 1 July snowfall 45.3 44.9  
Snow Depth 0.00 in    
Sea Level Pressure  
Sea Level Pressure 30.13 in    
Wind  
Wind Speed 10 mph (SSE)    
Max Wind Speed 20 mph    
Max Gust Speed 29 mph    
Visibility 10 miles    
Events      
T = Trace of Precipitation, MM = Missing Value Source: NWS Daily Summary

Daily Weather History Graph

Daily Weather History Graph

Search for Another Location

Airport:

Trip Planner

Search our weather history database for the weather conditions in past years. The results will help you decide how hot, cold, wet, or windy it might be!

Date:

Astronomy

May. 23, 2014 Rise Set
Actual Time 5:54 AM CDT 8:53 PM CDT
Civil Twilight 5:20 AM CDT 9:27 PM CDT
Nautical Twilight 4:37 AM CDT 10:11 PM CDT
Astronomical Twilight 3:46 AM CDT 11:02 PM CDT
Moon 2:59 AM CDT (5/23) 3:38 PM CDT (5/23)
Length of Visible Light 16h 07m
Length of Day
14h 58m
Waning Crescent, 27% of the Moon is Illuminated
May 23
Waning Crescent
May 28
New
Jun 5
First Quarter
Jun 12
Full
Jun 19
Last Quarter

Hourly Weather History & Observations

Time (CDT) Temp. Dew Point Humidity Pressure Visibility Wind Dir Wind Speed Gust Speed Precip Events Conditions
12:56 AM 61.0 °F 39.9 °F 46% 30.18 in 10.0 mi ESE 8.1 mph - N/A   Partly Cloudy
1:56 AM 55.9 °F 39.9 °F 55% 30.16 in 10.0 mi East 4.6 mph - N/A   Clear
2:56 AM 54.0 °F 39.0 °F 57% 30.17 in 10.0 mi East 5.8 mph - N/A   Clear
3:56 AM 57.9 °F 37.9 °F 47% 30.16 in 10.0 mi SE 11.5 mph - N/A   Partly Cloudy
4:56 AM 55.9 °F 37.9 °F 51% 30.16 in 10.0 mi SE 9.2 mph - N/A   Partly Cloudy
5:56 AM 51.1 °F 39.0 °F 63% 30.17 in 10.0 mi East 3.5 mph - N/A   Scattered Clouds
6:56 AM 55.9 °F 39.9 °F 55% 30.17 in 10.0 mi SE 6.9 mph - N/A   Mostly Cloudy
7:56 AM 60.1 °F 41.0 °F 49% 30.18 in 10.0 mi SE 9.2 mph - N/A   Mostly Cloudy
8:56 AM 64.9 °F 42.1 °F 43% 30.19 in 10.0 mi SSE 12.7 mph - N/A   Mostly Cloudy
9:56 AM 69.1 °F 43.0 °F 39% 30.19 in 10.0 mi SSE 11.5 mph - N/A   Mostly Cloudy
10:56 AM 70.0 °F 43.0 °F 38% 30.19 in 10.0 mi SSE 10.4 mph - N/A   Mostly Cloudy
11:56 AM 73.0 °F 42.1 °F 33% 30.18 in 10.0 mi South 15.0 mph 19.6 mph N/A   Mostly Cloudy
12:56 PM 78.1 °F 43.0 °F 29% 30.15 in 10.0 mi SE 11.5 mph - N/A   Mostly Cloudy
1:56 PM 81.0 °F 45.0 °F 28% 30.13 in 10.0 mi SSE 10.4 mph 18.4 mph N/A   Scattered Clouds
2:56 PM 78.8 °F 44.6 °F 30% 30.13 in 10.0 mi South 11.5 mph 21.9 mph N/A   Mostly Cloudy
3:56 PM 81.0 °F 44.1 °F 27% 30.10 in 10.0 mi SSE 15.0 mph 20.7 mph N/A   Mostly Cloudy
4:56 PM 81.0 °F 45.0 °F 28% 30.07 in 10.0 mi SSE 9.2 mph - N/A   Mostly Cloudy
5:56 PM 80.1 °F 44.1 °F 28% 30.06 in 10.0 mi South 15.0 mph - N/A   Overcast
6:56 PM 78.1 °F 44.1 °F 30% 30.05 in 10.0 mi SE 11.5 mph - N/A   Overcast
7:56 PM 78.1 °F 45.0 °F 31% 30.04 in 10.0 mi South 10.4 mph - N/A   Overcast
8:56 PM 73.9 °F 45.0 °F 35% 30.05 in 10.0 mi South 9.2 mph - N/A   Overcast
9:56 PM 71.1 °F 46.0 °F 41% 30.06 in 10.0 mi South 8.1 mph - N/A   Scattered Clouds
10:56 PM 68.0 °F 46.0 °F 45% 30.07 in 10.0 mi South 9.2 mph - N/A   Partly Cloudy
11:56 PM 66.0 °F 46.0 °F 48% 30.07 in 10.0 mi South 6.9 mph - N/A   Scattered Clouds